METEOR-M2 4

Last updated on Tue Sep 22 2026 00:02:54 GMT+0000 (Coordinated Universal Time)

1 59051U 24039A 26264.62197899 .00000000 00000+0 19636-4 0 9997 2 59051 98.7128 222.7557 0005947 248.6631 111.3912 14.22437948132976
UTC large
Height (km)
Speed (km/s)
/
Latitude / Longitude
Inclination (degrees)
Orbital Period (minutes)
Azimuth
Elevation
Range (km)
Doppler Factor

Next 0 passes for location: London (51.5072 / 0.1276)

No passes found over London.
METEOR-M2 4